TimeCDT,TemperatureF,Dew PointF,Humidity,Sea Level PressureIn,VisibilityMPH,Wind Direction,Wind SpeedMPH,Gust SpeedMPH,PrecipitationIn,Events,Conditions,WindDirDegrees,DateUTC
12:52 AM,66.9,50.0,54,30.00,10.0,South,8.1,-,N/A,,Clear,170,2011-10-16 05:52:00
1:52 AM,66.9,50.0,54,30.00,10.0,SSE,8.1,-,N/A,,Clear,160,2011-10-16 06:52:00
2:52 AM,68.0,51.1,55,29.99,10.0,South,10.4,-,N/A,,Clear,180,2011-10-16 07:52:00
3:52 AM,68.0,51.1,55,30.00,10.0,SSW,10.4,-,N/A,,Clear,210,2011-10-16 08:52:00
4:52 AM,64.9,51.1,61,30.00,10.0,South,5.8,-,N/A,,Clear,180,2011-10-16 09:52:00
5:52 AM,64.0,52.0,65,30.00,10.0,SSW,9.2,-,N/A,,Clear,200,2011-10-16 10:52:00
6:52 AM,63.0,52.0,67,30.01,10.0,SSW,8.1,-,N/A,,Clear,210,2011-10-16 11:52:00
7:52 AM,64.0,53.1,67,30.03,10.0,SSW,12.7,-,N/A,,Clear,210,2011-10-16 12:52:00
8:52 AM,64.9,55.9,73,30.04,10.0,SSW,10.4,-,N/A,,Clear,210,2011-10-16 13:52:00
9:52 AM,69.1,59.0,70,30.05,10.0,SSW,12.7,-,N/A,,Clear,210,2011-10-16 14:52:00
10:52 AM,73.9,61.0,64,30.04,10.0,SSW,15.0,-,N/A,,Clear,200,2011-10-16 15:52:00
11:52 AM,75.9,60.1,58,30.02,10.0,SSW,16.1,21.9,N/A,,Clear,210,2011-10-16 16:52:00
12:52 PM,79.0,60.1,52,30.00,10.0,South,15.0,-,N/A,,Clear,190,2011-10-16 17:52:00
1:52 PM,81.0,59.0,47,29.97,10.0,SSW,10.4,19.6,N/A,,Clear,200,2011-10-16 18:52:00
2:52 PM,82.0,57.9,44,29.94,10.0,South,15.0,-,N/A,,Clear,180,2011-10-16 19:52:00
3:52 PM,82.9,57.0,41,29.92,10.0,South,11.5,-,N/A,,Clear,190,2011-10-16 20:52:00
4:52 PM,84.0,55.9,38,29.90,10.0,South,11.5,-,N/A,,Clear,190,2011-10-16 21:52:00
5:52 PM,84.0,55.0,37,29.89,10.0,SSW,15.0,-,N/A,,Clear,210,2011-10-16 22:52:00
6:52 PM,81.0,53.1,38,29.88,10.0,South,8.1,-,N/A,,Clear,190,2011-10-16 23:52:00
7:52 PM,73.9,52.0,46,29.90,10.0,SE,8.1,-,N/A,,Clear,140,2011-10-17 00:52:00
8:52 PM,72.0,53.1,51,29.91,10.0,SSE,8.1,-,N/A,,Clear,160,2011-10-17 01:52:00
9:52 PM,71.1,53.1,53,29.91,10.0,South,5.8,-,N/A,,Clear,170,2011-10-17 02:52:00
10:52 PM,69.1,53.1,57,29.90,10.0,SSE,9.2,-,N/A,,Clear,150,2011-10-17 03:52:00
11:52 PM,70.0,53.1,55,29.89,10.0,South,9.2,-,N/A,,Clear,170,2011-10-17 04:52:00